contact:dominique.lefevre@mio.osupytheas.fr, maurice.libes@osupytheas.fr, didier.mallarino@osupytheas.fr
Project:EMSO http://www.emso-fr.org/EMSO-France
Depth: 2436.0 m
Title:EMSO Ligure Ouest : Data MII capteur CSTAR
DateTime,Latitude,Longitude,Instrument_Serial,Reference_Counts,Signal_Counts,Corrected_Signal_raw_counts,Calculated_Beam_c_inverse_meters,Internal_thermistor_counts
DateTime,Latitude,Longitude,Instrument_Serial,Reference_Counts,Signal_Counts,Corrected_Signal_raw_counts,Calculated_Beam_c_inverse_meters,Internal_thermistor_counts
2023-09-20T00:02:45,42.805,6.029,CST-1368DR,4162,4538,11559,01.203,553
2023-09-20T00:05:46,42.805,6.029,CST-1368DR,4162,4538,11561,01.203,552
2023-09-20T00:08:48,42.805,6.029,CST-1368DR,4162,4538,11559,01.203,553
2023-09-20T00:11:49,42.805,6.029,CST-1368DR,4162,4537,11558,01.204,553
2023-09-20T00:14:51,42.805,6.029,CST-1368DR,4162,4537,11557,01.204,553
2023-09-20T00:17:52,42.805,6.029,CST-1368DR,4162,4537,11557,01.204,553
2023-09-20T00:20:54,42.805,6.029,CST-1368DR,4162,4537,11557,01.204,553
2023-09-20T00:23:56,42.805,6.029,CST-1368DR,4162,4537,11557,01.204,552
2023-09-20T00:26:57,42.805,6.029,CST-1368DR,4162,4537,11559,01.203,552
2023-09-20T00:29:59,42.805,6.029,CST-1368DR,4162,4537,11557,01.204,553
2023-09-20T00:33:00,42.805,6.029,CST-1368DR,4162,4537,11557,01.204,553
2023-09-20T00:36:02,42.805,6.029,CST-1368DR,4162,4537,11558,01.204,553
2023-09-20T00:39:03,42.805,6.029,CST-1368DR,4162,4537,11557,01.204,553
2023-09-20T00:42:05,42.805,6.029,CST-1368DR,4162,4537,11559,01.203,553
2023-09-20T00:45:07,42.805,6.029,CST-1368DR,4162,4534,11551,01.206,552
2023-09-20T00:48:08,42.805,6.029,CST-1368DR,4162,4537,11557,01.204,553
2023-09-20T00:51:10,42.805,6.029,CST-1368DR,4162,4537,11558,01.204,552
2023-09-20T00:54:11,42.805,6.029,CST-1368DR,4162,4537,11557,01.204,553
2023-09-20T00:57:13,42.805,6.029,CST-1368DR,4162,4536,11556,01.204,553
2023-09-20T01:00:15,42.805,6.029,CST-1368DR,4162,4535,11552,01.206,552
2023-09-20T01:03:16,42.805,6.029,CST-1368DR,4162,4536,11554,01.205,552
2023-09-20T01:06:18,42.805,6.029,CST-1368DR,4162,4535,11553,01.205,553
2023-09-20T01:09:19,42.805,6.029,CST-1368DR,4162,4536,11556,01.204,553
2023-09-20T01:12:21,42.805,6.029,CST-1368DR,4162,4537,11557,01.204,552
2023-09-20T01:15:22,42.805,6.029,CST-1368DR,4162,4537,11559,01.203,553
2023-09-20T01:18:24,42.805,6.029,CST-1368DR,4162,4536,11556,01.204,553
2023-09-20T01:21:26,42.805,6.029,CST-1368DR,4162,4537,11557,01.204,553
2023-09-20T01:24:27,42.805,6.029,CST-1368DR,4162,4537,11557,01.204,552
2023-09-20T01:27:29,42.805,6.029,CST-1368DR,4162,4534,11551,01.206,553
2023-09-20T01:30:30,42.805,6.029,CST-1368DR,4162,4536,11555,01.205,553
2023-09-20T01:33:32,42.805,6.029,CST-1368DR,4162,4537,11557,01.204,553
2023-09-20T01:36:33,42.805,6.029,CST-1368DR,4162,4537,11557,01.204,552
2023-09-20T01:39:35,42.805,6.029,CST-1368DR,4162,4537,11557,01.204,552
2023-09-20T01:42:37,42.805,6.029,CST-1368DR,4162,4536,11556,01.204,553
2023-09-20T01:45:38,42.805,6.029,CST-1368DR,4162,4536,11556,01.204,553
2023-09-20T01:48:40,42.805,6.029,CST-1368DR,4162,4538,11559,01.203,552
2023-09-20T01:51:41,42.805,6.029,CST-1368DR,4162,4536,11555,01.205,552
2023-09-20T01:54:43,42.805,6.029,CST-1368DR,4162,4535,11553,01.205,552
2023-09-20T01:57:45,42.805,6.029,CST-1368DR,4162,4536,11556,01.204,553
2023-09-20T02:00:46,42.805,6.029,CST-1368DR,4162,4535,11552,01.206,552
2023-09-20T02:03:48,42.805,6.029,CST-1368DR,4162,4537,11558,01.204,553
2023-09-20T02:06:49,42.805,6.029,CST-1368DR,4162,4537,11559,01.203,553
2023-09-20T02:09:51,42.805,6.029,CST-1368DR,4162,4538,11559,01.203,552
2023-09-20T02:12:52,42.805,6.029,CST-1368DR,4162,4536,11554,01.205,552
2023-09-20T02:15:54,42.805,6.029,CST-1368DR,4162,4534,11550,01.206,552
2023-09-20T02:18:56,42.805,6.029,CST-1368DR,4162,4536,11556,01.204,553
2023-09-20T02:21:57,42.805,6.029,CST-1368DR,4162,4535,11552,01.206,552
2023-09-20T02:24:59,42.805,6.029,CST-1368DR,4162,4536,11556,01.204,553
2023-09-20T02:28:00,42.805,6.029,CST-1368DR,4162,4535,11553,01.205,552
2023-09-20T02:31:02,42.805,6.029,CST-1368DR,4162,4537,11559,01.203,553
2023-09-20T02:34:03,42.805,6.029,CST-1368DR,4162,4537,11558,01.204,552
2023-09-20T02:37:05,42.805,6.029,CST-1368DR,4162,4536,11556,01.204,553
2023-09-20T02:40:07,42.805,6.029,CST-1368DR,4162,4537,11557,01.204,553
2023-09-20T02:43:08,42.805,6.029,CST-1368DR,4162,4536,11556,01.204,553
2023-09-20T02:46:10,42.805,6.029,CST-1368DR,4162,4538,11560,01.203,553
2023-09-20T02:49:11,42.805,6.029,CST-1368DR,4162,4534,11549,01.207,553
2023-09-20T02:52:13,42.805,6.029,CST-1368DR,4162,4537,11557,01.204,552
2023-09-20T02:55:15,42.805,6.029,CST-1368DR,4162,4536,11556,01.204,553
2023-09-20T02:58:16,42.805,6.029,CST-1368DR,4162,4534,11550,01.206,553
2023-09-20T03:01:18,42.805,6.029,CST-1368DR,4162,4536,11556,01.204,553
2023-09-20T03:04:19,42.805,6.029,CST-1368DR,4162,4538,11559,01.203,553
2023-09-20T03:07:21,42.805,6.029,CST-1368DR,4162,4537,11558,01.204,553
2023-09-20T03:10:22,42.805,6.029,CST-1368DR,4162,4538,11561,01.203,552
2023-09-20T03:13:24,42.805,6.029,CST-1368DR,4162,4539,11562,01.202,552
2023-09-20T03:16:26,42.805,6.029,CST-1368DR,4162,4538,11561,01.203,553
2023-09-20T03:19:27,42.805,6.029,CST-1368DR,4162,4539,11562,01.202,552
2023-09-20T03:22:29,42.805,6.029,CST-1368DR,4162,4538,11561,01.203,553
2023-09-20T03:25:30,42.805,6.029,CST-1368DR,4162,4537,11558,01.204,553
2023-09-20T03:28:32,42.805,6.029,CST-1368DR,4162,4539,11562,01.202,553
2023-09-20T03:31:33,42.805,6.029,CST-1368DR,4162,4540,11565,01.201,552
2023-09-20T03:34:35,42.805,6.029,CST-1368DR,4162,4539,11562,01.202,552
2023-09-20T03:37:37,42.805,6.029,CST-1368DR,4162,4540,11565,01.201,553
2023-09-20T03:40:38,42.805,6.029,CST-1368DR,4162,4539,11564,01.202,553
2023-09-20T03:43:40,42.805,6.029,CST-1368DR,4162,4537,11557,01.204,553
2023-09-20T03:46:41,42.805,6.029,CST-1368DR,4162,4539,11564,01.202,553
2023-09-20T03:49:43,42.805,6.029,CST-1368DR,4162,4541,11567,01.201,553
2023-09-20T03:52:45,42.805,6.029,CST-1368DR,4162,4540,11566,01.201,552
2023-09-20T03:55:46,42.805,6.029,CST-1368DR,4162,4540,11566,01.201,553
2023-09-20T03:58:48,42.805,6.029,CST-1368DR,4162,4541,11567,01.201,553
2023-09-20T04:01:49,42.805,6.029,CST-1368DR,4162,4540,11566,01.201,552
2023-09-20T04:04:51,42.805,6.029,CST-1368DR,4162,4541,11567,01.201,552
2023-09-20T04:07:52,42.805,6.029,CST-1368DR,4162,4540,11566,01.201,553
2023-09-20T04:10:54,42.805,6.029,CST-1368DR,4162,4541,11567,01.201,552
2023-09-20T04:13:56,42.805,6.029,CST-1368DR,4162,4540,11565,01.201,553
2023-09-20T04:16:57,42.805,6.029,CST-1368DR,4162,4541,11568,01.200,553
2023-09-20T04:19:59,42.805,6.029,CST-1368DR,4162,4540,11566,01.201,552
2023-09-20T04:23:00,42.805,6.029,CST-1368DR,4162,4541,11567,01.201,552
2023-09-20T04:26:02,42.805,6.029,CST-1368DR,4162,4539,11563,01.202,553
2023-09-20T04:29:03,42.805,6.029,CST-1368DR,4162,4540,11565,01.201,553
2023-09-20T04:32:05,42.805,6.029,CST-1368DR,4162,4540,11564,01.202,552
2023-09-20T04:35:07,42.805,6.029,CST-1368DR,4162,4540,11566,01.201,552
2023-09-20T04:38:08,42.805,6.029,CST-1368DR,4162,4540,11566,01.201,553
2023-09-20T04:41:10,42.805,6.029,CST-1368DR,4162,4540,11565,01.201,553
2023-09-20T04:44:11,42.805,6.029,CST-1368DR,4162,4541,11568,01.200,552
2023-09-20T04:47:13,42.805,6.029,CST-1368DR,4162,4540,11566,01.201,553
2023-09-20T04:50:15,42.805,6.029,CST-1368DR,4162,4540,11566,01.201,552
2023-09-20T04:53:16,42.805,6.029,CST-1368DR,4162,4541,11568,01.200,553
2023-09-20T04:56:18,42.805,6.029,CST-1368DR,4162,4541,11568,01.200,553
2023-09-20T04:59:19,42.805,6.029,CST-1368DR,4162,4541,11568,01.200,552
2023-09-20T05:02:21,42.805,6.029,CST-1368DR,4162,4540,11565,01.201,553
2023-09-20T05:05:22,42.805,6.029,CST-1368DR,4162,4541,11567,01.201,552
2023-09-20T05:08:24,42.805,6.029,CST-1368DR,4162,4541,11568,01.200,553
2023-09-20T05:11:26,42.805,6.029,CST-1368DR,4162,4540,11566,01.201,552
2023-09-20T05:14:27,42.805,6.029,CST-1368DR,4162,4540,11564,01.202,553
2023-09-20T05:17:29,42.805,6.029,CST-1368DR,4162,4540,11566,01.201,552
2023-09-20T05:20:30,42.805,6.029,CST-1368DR,4162,4541,11567,01.201,553
2023-09-20T05:23:32,42.805,6.029,CST-1368DR,4162,4540,11566,01.201,553
2023-09-20T05:26:33,42.805,6.029,CST-1368DR,4162,4539,11563,01.202,553
2023-09-20T05:29:35,42.805,6.029,CST-1368DR,4162,4541,11567,01.201,553
2023-09-20T05:32:37,42.805,6.029,CST-1368DR,4162,4541,11568,01.200,552
2023-09-20T05:35:38,42.805,6.029,CST-1368DR,4162,4540,11566,01.201,552
2023-09-20T05:38:40,42.805,6.029,CST-1368DR,4162,4540,11566,01.201,553
2023-09-20T05:41:41,42.805,6.029,CST-1368DR,4162,4540,11565,01.201,553
2023-09-20T05:44:43,42.805,6.029,CST-1368DR,4162,4540,11564,01.202,553
2023-09-20T05:47:45,42.805,6.029,CST-1368DR,4162,4540,11566,01.201,553
2023-09-20T05:50:46,42.805,6.029,CST-1368DR,4162,4541,11567,01.201,552
2023-09-20T05:53:48,42.805,6.029,CST-1368DR,4162,4541,11567,01.201,552
2023-09-20T05:56:49,42.805,6.029,CST-1368DR,4162,4540,11564,01.202,553
2023-09-20T05:59:51,42.805,6.029,CST-1368DR,4162,4541,11568,01.200,553
2023-09-20T06:02:52,42.805,6.029,CST-1368DR,4162,4540,11566,01.201,552
2023-09-20T06:05:54,42.805,6.029,CST-1368DR,4162,4541,11568,01.200,552
2023-09-20T06:08:56,42.805,6.029,CST-1368DR,4162,4540,11566,01.201,552
2023-09-20T06:11:57,42.805,6.029,CST-1368DR,4162,4541,11568,01.200,553
2023-09-20T06:14:59,42.805,6.029,CST-1368DR,4162,4539,11562,01.202,553
2023-09-20T06:18:00,42.805,6.029,CST-1368DR,4162,4538,11561,01.203,553
2023-09-20T06:21:02,42.805,6.029,CST-1368DR,4162,4536,11554,01.205,553
2023-09-20T06:24:03,42.805,6.029,CST-1368DR,4162,4540,11564,01.202,553
2023-09-20T06:27:05,42.805,6.029,CST-1368DR,4162,4537,11558,01.204,553
2023-09-20T06:30:07,42.805,6.029,CST-1368DR,4162,4540,11566,01.201,553
2023-09-20T06:33:08,42.805,6.029,CST-1368DR,4162,4536,11556,01.204,552
2023-09-20T06:36:10,42.805,6.029,CST-1368DR,4162,4538,11561,01.203,553
2023-09-20T06:39:11,42.805,6.029,CST-1368DR,4162,4539,11562,01.202,553
2023-09-20T06:42:13,42.805,6.029,CST-1368DR,4162,4539,11563,01.202,552
2023-09-20T06:45:14,42.805,6.029,CST-1368DR,4162,4538,11561,01.203,552
2023-09-20T06:48:16,42.805,6.029,CST-1368DR,4162,4539,11564,01.202,553
2023-09-20T06:51:18,42.805,6.029,CST-1368DR,4162,4541,11568,01.200,553
2023-09-20T06:54:19,42.805,6.029,CST-1368DR,4162,4540,11566,01.201,552
2023-09-20T06:57:21,42.805,6.029,CST-1368DR,4162,4529,11538,01.211,553
2023-09-20T07:00:22,42.805,6.029,CST-1368DR,4162,4540,11566,01.201,552
2023-09-20T07:03:24,42.805,6.029,CST-1368DR,4162,4538,11561,01.203,552
2023-09-20T07:06:26,42.805,6.029,CST-1368DR,4162,4540,11564,01.202,553
2023-09-20T07:09:27,42.805,6.029,CST-1368DR,4162,4540,11566,01.201,553
2023-09-20T07:12:29,42.805,6.029,CST-1368DR,4162,4540,11564,01.202,553
2023-09-20T07:15:30,42.805,6.029,CST-1368DR,4162,4540,11566,01.201,552
2023-09-20T07:18:32,42.805,6.029,CST-1368DR,4162,4540,11566,01.201,552
2023-09-20T07:21:33,42.805,6.029,CST-1368DR,4162,4541,11568,01.200,553
2023-09-20T07:24:35,42.805,6.029,CST-1368DR,4162,4540,11564,01.202,553
2023-09-20T07:27:37,42.805,6.029,CST-1368DR,4162,4541,11568,01.200,553
2023-09-20T07:30:38,42.805,6.029,CST-1368DR,4162,4540,11565,01.201,552
2023-09-20T07:33:40,42.805,6.029,CST-1368DR,4162,4540,11566,01.201,552
2023-09-20T07:36:41,42.805,6.029,CST-1368DR,4162,4541,11568,01.200,552
2023-09-20T07:39:43,42.805,6.029,CST-1368DR,4162,4539,11563,01.202,552
2023-09-20T07:42:45,42.805,6.029,CST-1368DR,4162,4539,11563,01.202,553
2023-09-20T07:45:46,42.805,6.029,CST-1368DR,4162,4540,11566,01.201,553
2023-09-20T07:48:48,42.805,6.029,CST-1368DR,4162,4540,11566,01.201,553
2023-09-20T07:51:49,42.805,6.029,CST-1368DR,4162,4540,11564,01.202,552
2023-09-20T07:54:51,42.805,6.029,CST-1368DR,4162,4541,11568,01.200,553
2023-09-20T07:57:52,42.805,6.029,CST-1368DR,4162,4539,11564,01.202,553
2023-09-20T08:00:54,42.805,6.029,CST-1368DR,4162,4542,11570,01.200,553
2023-09-20T08:03:56,42.805,6.029,CST-1368DR,4162,4540,11566,01.201,552
2023-09-20T08:06:57,42.805,6.029,CST-1368DR,4162,4541,11568,01.200,553
2023-09-20T08:09:59,42.805,6.029,CST-1368DR,4162,4541,11567,01.201,553
2023-09-20T08:13:00,42.805,6.029,CST-1368DR,4162,4540,11564,01.202,553
2023-09-20T08:16:02,42.805,6.029,CST-1368DR,4162,4539,11563,01.202,552
2023-09-20T08:19:03,42.805,6.029,CST-1368DR,4162,4540,11565,01.201,552
2023-09-20T08:22:05,42.805,6.029,CST-1368DR,4162,4539,11564,01.202,553
2023-09-20T08:25:07,42.805,6.029,CST-1368DR,4162,4540,11566,01.201,552
2023-09-20T08:28:08,42.805,6.029,CST-1368DR,4162,4540,11565,01.201,552
2023-09-20T08:31:11,42.805,6.029,CST-1368DR,4162,4539,11563,01.202,553
2023-09-20T08:34:12,42.805,6.029,CST-1368DR,4162,4541,11568,01.200,553
2023-09-20T08:37:14,42.805,6.029,CST-1368DR,4162,4538,11561,01.203,553
2023-09-20T08:40:15,42.805,6.029,CST-1368DR,4162,4539,11563,01.202,552
2023-09-20T08:43:17,42.805,6.029,CST-1368DR,4162,4541,11567,01.201,553
2023-09-20T08:46:18,42.805,6.029,CST-1368DR,4162,4540,11566,01.201,553
2023-09-20T08:49:20,42.805,6.029,CST-1368DR,4162,4540,11566,01.201,553
2023-09-20T08:52:22,42.805,6.029,CST-1368DR,4162,4541,11567,01.201,552
2023-09-20T08:55:23,42.805,6.029,CST-1368DR,4162,4540,11564,01.202,552
2023-09-20T08:58:25,42.805,6.029,CST-1368DR,4162,4541,11568,01.200,553
2023-09-20T09:01:26,42.805,6.029,CST-1368DR,4162,4541,11567,01.201,552
2023-09-20T09:04:28,42.805,6.029,CST-1368DR,4162,4540,11565,01.201,552
2023-09-20T09:07:29,42.805,6.029,CST-1368DR,4162,4540,11566,01.201,552
2023-09-20T09:10:31,42.805,6.029,CST-1368DR,4162,4540,11566,01.201,552
2023-09-20T09:13:33,42.805,6.029,CST-1368DR,4162,4539,11564,01.202,553
2023-09-20T09:16:34,42.805,6.029,CST-1368DR,4162,4540,11565,01.201,553
2023-09-20T09:19:36,42.805,6.029,CST-1368DR,4162,4540,11565,01.201,553
2023-09-20T09:22:37,42.805,6.029,CST-1368DR,4162,4542,11570,01.200,552
2023-09-20T09:25:39,42.805,6.029,CST-1368DR,4162,4541,11567,01.201,553
2023-09-20T09:28:41,42.805,6.029,CST-1368DR,4162,4537,11558,01.204,552
2023-09-20T09:31:42,42.805,6.029,CST-1368DR,4162,4540,11566,01.201,553
2023-09-20T09:34:44,42.805,6.029,CST-1368DR,4162,4540,11566,01.201,553
2023-09-20T09:37:45,42.805,6.029,CST-1368DR,4162,4539,11562,01.202,552
2023-09-20T09:40:47,42.805,6.029,CST-1368DR,4162,4540,11566,01.201,552
2023-09-20T09:43:48,42.805,6.029,CST-1368DR,4162,4540,11566,01.201,552
2023-09-20T09:46:50,42.805,6.029,CST-1368DR,4162,4540,11566,01.201,552
2023-09-20T09:49:52,42.805,6.029,CST-1368DR,4162,4541,11567,01.201,553
2023-09-20T09:52:53,42.805,6.029,CST-1368DR,4162,4540,11565,01.201,553
2023-09-20T09:55:55,42.805,6.029,CST-1368DR,4162,4540,11565,01.201,552
2023-09-20T09:58:56,42.805,6.029,CST-1368DR,4162,4540,11566,01.201,553
2023-09-20T10:01:58,42.805,6.029,CST-1368DR,4162,4540,11564,01.202,552
2023-09-20T10:04:59,42.805,6.029,CST-1368DR,4162,4540,11566,01.201,553
2023-09-20T10:08:01,42.805,6.029,CST-1368DR,4162,4539,11562,01.202,553
2023-09-20T10:11:03,42.805,6.029,CST-1368DR,4162,4543,11572,01.199,553
2023-09-20T10:14:04,42.805,6.029,CST-1368DR,4162,4540,11564,01.202,553
2023-09-20T10:17:06,42.805,6.029,CST-1368DR,4162,4540,11565,01.201,552
2023-09-20T10:20:07,42.805,6.029,CST-1368DR,4162,4540,11564,01.202,553
2023-09-20T10:23:09,42.805,6.029,CST-1368DR,4162,4539,11564,01.202,552
2023-09-20T10:26:11,42.805,6.029,CST-1368DR,4162,4540,11565,01.201,552
2023-09-20T10:29:12,42.805,6.029,CST-1368DR,4162,4540,11566,01.201,552
2023-09-20T10:32:14,42.805,6.029,CST-1368DR,4162,4538,11561,01.203,552
2023-09-20T10:35:15,42.805,6.029,CST-1368DR,4162,4539,11562,01.202,552
2023-09-20T10:38:17,42.805,6.029,CST-1368DR,4162,4540,11566,01.201,552
2023-09-20T10:41:18,42.805,6.029,CST-1368DR,4162,4540,11565,01.201,553
2023-09-20T10:44:20,42.805,6.029,CST-1368DR,4162,4539,11564,01.202,553
2023-09-20T10:47:22,42.805,6.029,CST-1368DR,4162,4540,11566,01.201,553
2023-09-20T10:50:23,42.805,6.029,CST-1368DR,4162,4541,11567,01.201,552
2023-09-20T10:53:25,42.805,6.029,CST-1368DR,4162,4539,11563,01.202,552
2023-09-20T10:56:26,42.805,6.029,CST-1368DR,4162,4540,11564,01.202,553
2023-09-20T10:59:28,42.805,6.029,CST-1368DR,4162,4539,11564,01.202,553
2023-09-20T11:02:29,42.805,6.029,CST-1368DR,4162,4540,11565,01.201,552
2023-09-20T11:05:31,42.805,6.029,CST-1368DR,4162,4540,11564,01.202,552
2023-09-20T11:08:33,42.805,6.029,CST-1368DR,4162,4540,11564,01.202,553
2023-09-20T11:11:34,42.805,6.029,CST-1368DR,4162,4540,11565,01.201,552
2023-09-20T11:14:36,42.805,6.029,CST-1368DR,4162,4538,11561,01.203,553
2023-09-20T11:17:37,42.805,6.029,CST-1368DR,4162,4539,11562,01.202,552
2023-09-20T11:20:39,42.805,6.029,CST-1368DR,4162,4540,11564,01.202,553
2023-09-20T11:23:41,42.805,6.029,CST-1368DR,4162,4537,11559,01.203,552
2023-09-20T11:26:42,42.805,6.029,CST-1368DR,4162,4539,11564,01.202,553
2023-09-20T11:29:44,42.805,6.029,CST-1368DR,4162,4537,11557,01.204,552
2023-09-20T11:32:45,42.805,6.029,CST-1368DR,4162,4537,11558,01.204,552
2023-09-20T11:35:47,42.805,6.029,CST-1368DR,4162,4539,11562,01.202,553
2023-09-20T11:38:48,42.805,6.029,CST-1368DR,4162,4538,11559,01.203,552
2023-09-20T11:41:50,42.805,6.029,CST-1368DR,4162,4536,11556,01.204,553
2023-09-20T11:44:52,42.805,6.029,CST-1368DR,4162,4538,11559,01.203,553
2023-09-20T11:47:53,42.805,6.029,CST-1368DR,4162,4538,11559,01.203,553
2023-09-20T11:50:55,42.805,6.029,CST-1368DR,4161,4537,11560,01.203,552
2023-09-20T11:53:56,42.805,6.029,CST-1368DR,4162,4537,11557,01.204,552
2023-09-20T11:56:58,42.805,6.029,CST-1368DR,4162,4536,11555,01.205,553
2023-09-20T11:59:59,42.805,6.029,CST-1368DR,4162,4536,11556,01.204,553
2023-09-20T12:03:01,42.805,6.029,CST-1368DR,4162,4536,11556,01.204,553
2023-09-20T12:06:03,42.805,6.029,CST-1368DR,4162,4537,11557,01.204,553
2023-09-20T12:09:04,42.805,6.029,CST-1368DR,4162,4537,11557,01.204,552
2023-09-20T12:12:06,42.805,6.029,CST-1368DR,4162,4537,11558,01.204,553
2023-09-20T12:15:07,42.805,6.029,CST-1368DR,4162,4537,11557,01.204,552
2023-09-20T12:18:09,42.805,6.029,CST-1368DR,4162,4537,11557,01.204,553
2023-09-20T12:21:11,42.805,6.029,CST-1368DR,4162,4536,11556,01.204,552
2023-09-20T12:24:12,42.805,6.029,CST-1368DR,4162,4536,11555,01.205,552
2023-09-20T12:27:14,42.805,6.029,CST-1368DR,4162,4536,11555,01.205,553
2023-09-20T12:30:18,42.805,6.029,CST-1368DR,4162,4536,11555,01.205,553
2023-09-20T12:33:19,42.805,6.029,CST-1368DR,4162,4535,11552,01.206,552
2023-09-20T12:36:21,42.805,6.029,CST-1368DR,4162,4535,11553,01.205,553
2023-09-20T12:39:23,42.805,6.029,CST-1368DR,4162,4536,11554,01.205,553
2023-09-20T12:42:24,42.805,6.029,CST-1368DR,4162,4537,11557,01.204,552
2023-09-20T12:45:26,42.805,6.029,CST-1368DR,4162,4540,11566,01.201,553
2023-09-20T12:48:27,42.805,6.029,CST-1368DR,4162,4534,11550,01.206,553
2023-09-20T12:51:29,42.805,6.029,CST-1368DR,4162,4534,11550,01.206,552
2023-09-20T12:54:30,42.805,6.029,CST-1368DR,4162,4534,11551,01.206,553
2023-09-20T12:57:32,42.805,6.029,CST-1368DR,4162,4535,11553,01.205,552
2023-09-20T13:00:34,42.805,6.029,CST-1368DR,4162,4536,11556,01.204,553
2023-09-20T13:03:35,42.805,6.029,CST-1368DR,4162,4536,11556,01.204,553
2023-09-20T13:06:37,42.805,6.029,CST-1368DR,4162,4536,11556,01.204,553
2023-09-20T13:09:38,42.805,6.029,CST-1368DR,4162,4535,11553,01.205,552
2023-09-20T13:12:40,42.805,6.029,CST-1368DR,4162,4536,11554,01.205,552
2023-09-20T13:15:41,42.805,6.029,CST-1368DR,4162,4537,11557,01.204,552
2023-09-20T13:18:43,42.805,6.029,CST-1368DR,4162,4535,11553,01.205,553
2023-09-20T13:21:45,42.805,6.029,CST-1368DR,4162,4536,11555,01.205,552
2023-09-20T13:24:46,42.805,6.029,CST-1368DR,4162,4536,11556,01.204,553
2023-09-20T13:27:48,42.805,6.029,CST-1368DR,4162,4537,11557,01.204,553
2023-09-20T13:30:49,42.805,6.029,CST-1368DR,4162,4537,11557,01.204,553
2023-09-20T13:33:51,42.805,6.029,CST-1368DR,4162,4536,11555,01.205,553
2023-09-20T13:36:52,42.805,6.029,CST-1368DR,4162,4536,11555,01.205,552
2023-09-20T13:39:54,42.805,6.029,CST-1368DR,4162,4536,11556,01.204,552
2023-09-20T13:42:56,42.805,6.029,CST-1368DR,4162,4536,11554,01.205,553
2023-09-20T13:45:57,42.805,6.029,CST-1368DR,4162,4535,11552,01.206,553
2023-09-20T13:48:59,42.805,6.029,CST-1368DR,4162,4536,11556,01.204,552
2023-09-20T13:52:00,42.805,6.029,CST-1368DR,4162,4536,11554,01.205,553
2023-09-20T13:55:02,42.805,6.029,CST-1368DR,4162,4534,11551,01.206,553
2023-09-20T13:58:04,42.805,6.029,CST-1368DR,4162,4535,11552,01.206,553
2023-09-20T14:01:05,42.805,6.029,CST-1368DR,4162,4536,11556,01.204,552
2023-09-20T14:04:07,42.805,6.029,CST-1368DR,4162,4535,11552,01.206,553
2023-09-20T14:07:08,42.805,6.029,CST-1368DR,4162,4536,11554,01.205,553
2023-09-20T14:10:10,42.805,6.029,CST-1368DR,4162,4536,11554,01.205,553
2023-09-20T14:13:11,42.805,6.029,CST-1368DR,4162,4535,11552,01.206,553
2023-09-20T14:16:13,42.805,6.029,CST-1368DR,4162,4535,11552,01.206,553
2023-09-20T14:19:15,42.805,6.029,CST-1368DR,4162,4535,11552,01.206,553
2023-09-20T14:22:16,42.805,6.029,CST-1368DR,4162,4535,11552,01.206,552
2023-09-20T14:25:18,42.805,6.029,CST-1368DR,4162,4535,11553,01.205,552
2023-09-20T14:28:19,42.805,6.029,CST-1368DR,4162,4535,11552,01.206,552
2023-09-20T14:31:21,42.805,6.029,CST-1368DR,4161,4535,11555,01.205,553
2023-09-20T14:34:22,42.805,6.029,CST-1368DR,4162,4535,11553,01.205,553
2023-09-20T14:37:24,42.805,6.029,CST-1368DR,4162,4535,11552,01.206,553
2023-09-20T14:40:26,42.805,6.029,CST-1368DR,4162,4533,11547,01.207,553
2023-09-20T14:43:27,42.805,6.029,CST-1368DR,4162,4534,11551,01.206,553
2023-09-20T14:46:29,42.805,6.029,CST-1368DR,4162,4535,11552,01.206,552
2023-09-20T14:49:30,42.805,6.029,CST-1368DR,4162,4535,11552,01.206,553
2023-09-20T14:52:32,42.805,6.029,CST-1368DR,4162,4534,11549,01.207,553
2023-09-20T14:55:34,42.805,6.029,CST-1368DR,4161,4534,11553,01.205,553
2023-09-20T14:58:35,42.805,6.029,CST-1368DR,4162,4534,11550,01.206,553
2023-09-20T15:01:37,42.805,6.029,CST-1368DR,4162,4537,11557,01.204,553
2023-09-20T15:04:38,42.805,6.029,CST-1368DR,4162,4534,11550,01.206,552
2023-09-20T15:07:40,42.805,6.029,CST-1368DR,4162,4532,11544,01.209,552
2023-09-20T15:10:41,42.805,6.029,CST-1368DR,4162,4533,11548,01.207,553
2023-09-20T15:13:43,42.805,6.029,CST-1368DR,4162,4533,11549,01.207,553
2023-09-20T15:16:45,42.805,6.029,CST-1368DR,4162,4534,11550,01.206,553
2023-09-20T15:19:46,42.805,6.029,CST-1368DR,4162,4534,11551,01.206,553
2023-09-20T15:22:48,42.805,6.029,CST-1368DR,4162,4534,11551,01.206,553
2023-09-20T15:25:49,42.805,6.029,CST-1368DR,4162,4533,11549,01.207,553
2023-09-20T15:28:51,42.805,6.029,CST-1368DR,4162,4535,11552,01.206,553
2023-09-20T15:31:53,42.805,6.029,CST-1368DR,4162,4534,11550,01.206,552
2023-09-20T15:34:54,42.805,6.029,CST-1368DR,4161,4535,11556,01.204,553
2023-09-20T15:37:56,42.805,6.029,CST-1368DR,4161,4534,11552,01.206,553
2023-09-20T15:40:57,42.805,6.029,CST-1368DR,4162,4534,11551,01.206,553
2023-09-20T15:43:59,42.805,6.029,CST-1368DR,4161,4534,11552,01.206,553
2023-09-20T15:47:00,42.805,6.029,CST-1368DR,4161,4533,11551,01.206,553
2023-09-20T15:50:02,42.805,6.029,CST-1368DR,4161,4533,11550,01.206,553
2023-09-20T15:53:04,42.805,6.029,CST-1368DR,4162,4533,11548,01.207,553
2023-09-20T15:56:05,42.805,6.029,CST-1368DR,4162,4534,11549,01.207,553
2023-09-20T15:59:07,42.805,6.029,CST-1368DR,4162,4533,11549,01.207,553
2023-09-20T16:02:08,42.805,6.029,CST-1368DR,4162,4534,11551,01.206,553
2023-09-20T16:05:10,42.805,6.029,CST-1368DR,4162,4534,11551,01.206,553
2023-09-20T16:08:11,42.805,6.029,CST-1368DR,4162,4534,11549,01.207,553
2023-09-20T16:11:13,42.805,6.029,CST-1368DR,4161,4535,11554,01.205,553
2023-09-20T16:14:15,42.805,6.029,CST-1368DR,4162,4534,11549,01.207,553
2023-09-20T16:17:16,42.805,6.029,CST-1368DR,4162,4534,11550,01.206,553
2023-09-20T16:20:18,42.805,6.029,CST-1368DR,4162,4533,11548,01.207,552
2023-09-20T16:23:19,42.805,6.029,CST-1368DR,4161,4534,11553,01.205,553
2023-09-20T16:26:21,42.805,6.029,CST-1368DR,4161,4534,11552,01.206,553
2023-09-20T16:29:23,42.805,6.029,CST-1368DR,4161,4532,11549,01.207,553
2023-09-20T16:32:24,42.805,6.029,CST-1368DR,4161,4533,11550,01.206,553
2023-09-20T16:35:26,42.805,6.029,CST-1368DR,4161,4532,11549,01.207,553
2023-09-20T16:38:27,42.805,6.029,CST-1368DR,4162,4534,11550,01.206,552